Regional Weather Roundup
Issued by NWS State College, PA

Home | Current Version | Previous Version | Text Only | Print | Product List | Glossary Off
Versions: 1 2 3 4 5 6 7 8 9 10 11 12 13 14 15 16 17 18 19 20 21 22 23 24 25 26 27 28 29 30 31 32 33 34 35 36 37 38 39 40 41 42 43 44 45 46 47 48 49 50

000
ASUS41 KCTP 020803
RWRCTP

REGIONAL WEATHER ROUNDUP
NATIONAL WEATHER SERVICE STATE COLLEGE PA
400 AM EDT MON MAY 02 2016

Note: "fair" indicates few or no clouds below 12,000 feet with no
significant weather and/or obstructions to visibility.

* = STATION THAT DOES NOT REPORT PRECIPITATION /E.G. RAIN...SNOW...ETC/
    THUNDER OR FOG.

PAZ002>004-007>009-013>016-020>023-029>032-020900-
WESTERN PENNSYLVANIA

CITY           SKY/WX    TMP DP  RH WIND       PRES   REMARKS
ERIE           RAIN      45  43  93 N3        29.93R FOG
MEADVILLE        N/A    N/A N/A N/A MISG      29.88F
FRANKLIN*      CLOUDY    48  46  93 N6        29.89F VSB 1/4
NEW CASTLE     HVY RAIN  51  50  96 N5        29.89S FOG
BEAVER COUNTY  NOT AVBL
BUTLER*        CLOUDY    54  52  94 NE8       29.87F
PITTSBURGH INT TSTM      55  53  93 E7        29.82F
PITTSBURGH     MOCLDY    57  55  93 SE3       29.85F FOG
INDIANA*       CLOUDY    55  55 100 CALM      29.90F
LATROBE        MOCLDY    55  55 100 CALM      29.87S
WASHINGTON CO* MOCLDY    54  54 100 CALM      29.86F
$$

PAZ004>006-010>012-017>019-024>028-033>037-041-042-045-046-049>053-020900-
CENTRAL PENNSYLVANIA

CITY           SKY/WX    TMP DP  RH WIND       PRES   REMARKS
BRADFORD       CLOUDY    50  49  96 SE7       29.90F FOG
DUBOIS         FOG       52  51  97 E10       29.87F VSB 1/4
CLEARFIELD     FOG       51  49  92 E7        29.91F VSB 1/4
JOHNSTOWN      FOG       54  51  90 S8        29.90F VSB 1/4
ALTOONA        FOG       53  52  96 S7        29.93S VSB 1/2
STATE COLLEGE  CLOUDY    49  49  97 CALM      29.93F
WILLIAMSPORT   CLOUDY    50  47  89 E7        29.96S
SELINSGROVE    CLOUDY    50  49  96 CALM      29.97S
FT INDIANTOWN  CLOUDY    49  49 100 VRB1      29.97S FOG
CAPITAL CITY   CLOUDY    52  50  93 E7        29.96F FOG
HARRISBURG     DRIZZLE   52  50  93 SE7       29.96S FOG
YORK           CLOUDY    52  51  97 SE3       29.97F
$$

PAZ038>040-043-044-047-048-054-055-060>062-067>071-020900-
EASTERN PENNSYLVANIA

CITY           SKY/WX    TMP DP  RH WIND       PRES   REMARKS
SCRANTON       CLOUDY    48  45  89 NE5       29.96F
MOUNT POCONO   FOG       42  41  96 E5        29.97F VSB 1/4
ALLENTOWN      CLOUDY    48  46  93 E5        29.99F FOG
QUAKERTOWN*    CLOUDY    46  46 100 CALM      30.00F
READING        LGT RAIN  49  46  90 S3        29.98F FOG
LANCASTER      CLOUDY    49  49 100 E7        29.97F FOG
COATESVILLE    LGT RAIN  48  48 100 CALM      29.99F
POTTSTOWN      CLOUDY    46  46 100 CALM      30.01F FOG
BLUE BELL      CLOUDY    45  45 100 CALM      30.00F
DOYLESTOWN     CLOUDY    45  45 100 VRB3      29.99F
WILLOW GROVE   NOT AVBL
NORTH PHILA    CLOUDY    48  46  93 E6        30.02F
PHILADELPHIA   LGT RAIN  49  45  86 E7        30.01F
$$




USA.gov is the U.S. government's official web portal to all federal, state and local government web resources and services.